Time,TemperatureF,DewpointF,PressureIn,WindDirection,WindDirectionDegrees,WindSpeedMPH,WindSpeedGustMPH,Humidity,HourlyPrecipIn,Conditions,Clouds,dailyrainin,SoftwareType,DateUTC
2013-02-16 07:04:00,12.2,-0.9,29.50,West,273,3.0,5.0,55,0.00,CLR,,0.00,WeatherDisplay:10.37,2013-02-16 13:04:00,
2013-02-16 13:23:00,26.3,6.8,29.41,NW,307,6.0,11.0,43,0.00,CLR,,0.00,WeatherDisplay:10.37,2013-02-16 19:23:00,
2013-02-16 13:24:00,26.3,6.8,29.41,NW,307,6.0,11.0,43,0.00,CLR,,0.00,WeatherDisplay:10.37,2013-02-16 19:24:00,
2013-02-16 17:54:00,20.9,4.3,29.44,NW,315,0.0,3.0,48,0.00,CLR,,0.00,WeatherDisplay:10.37,2013-02-16 23:54:00,
2013-02-16 18:07:00,20.5,4.3,29.47,NNW,333,1.0,2.0,49,0.00,CLR,,0.00,WeatherDisplay:10.37,2013-02-17 00:07:00,
2013-02-16 18:22:00,20.1,4.0,29.47,NNW,339,0.0,0.0,49,0.00,CLR,,0.00,WeatherDisplay:10.37,2013-02-17 00:22:00,
2013-02-16 18:37:00,20.3,4.6,29.47,NNW,338,0.0,0.0,50,0.00,CLR,,0.00,WeatherDisplay:10.37,2013-02-17 00:37:00,
2013-02-16 18:52:00,20.3,5.5,29.47,NNW,340,0.0,1.0,52,0.00,CLR,,0.00,WeatherDisplay:10.37,2013-02-17 00:52:00,
2013-02-16 19:07:00,19.9,5.5,29.47,NNW,338,0.0,0.0,53,0.00,CLR,,0.00,WeatherDisplay:10.37,2013-02-17 01:07:00,
2013-02-16 19:22:00,19.2,5.7,29.47,NNE,26,2.0,6.0,55,0.00,CLR,,0.00,WeatherDisplay:10.37,2013-02-17 01:22:00,
2013-02-16 19:37:00,19.2,5.7,29.47,ENE,69,5.0,6.0,55,0.00,CLR,,0.00,WeatherDisplay:10.37,2013-02-17 01:37:00,
2013-02-16 19:52:00,19.0,5.5,29.47,ENE,71,3.0,5.0,55,0.00,CLR,,0.00,WeatherDisplay:10.37,2013-02-17 01:52:00,
2013-02-16 20:07:00,18.6,5.1,29.47,ENE,75,2.0,5.0,55,0.00,CLR,,0.00,WeatherDisplay:10.37,2013-02-17 02:07:00,
2013-02-16 20:22:00,18.3,4.8,29.47,ENE,73,3.0,5.0,55,0.00,CLR,,0.00,WeatherDisplay:10.37,2013-02-17 02:22:00,
2013-02-16 20:37:00,18.3,4.8,29.47,ENE,70,3.0,5.0,55,0.00,CLR,,0.00,WeatherDisplay:10.37,2013-02-17 02:37:00,
2013-02-16 20:52:00,18.1,4.7,29.47,ENE,72,2.0,4.0,55,0.00,CLR,,0.00,WeatherDisplay:10.37,2013-02-17 02:52:00,
2013-02-16 21:07:00,17.6,4.2,29.47,East,80,2.0,5.0,55,0.00,CLR,,0.00,WeatherDisplay:10.37,2013-02-17 03:07:00,
2013-02-16 21:22:00,17.1,3.6,29.47,ENE,70,2.0,3.0,55,0.00,CLR,,0.00,WeatherDisplay:10.37,2013-02-17 03:22:00,
2013-02-16 21:37:00,17.1,4.0,29.47,ENE,69,1.0,3.0,56,0.00,CLR,,0.00,WeatherDisplay:10.37,2013-02-17 03:37:00,
2013-02-16 21:52:00,17.4,4.0,29.47,East,101,1.0,2.0,55,0.00,CLR,,0.00,WeatherDisplay:10.37,2013-02-17 03:52:00,
2013-02-16 22:07:00,17.1,3.6,29.47,East,80,1.0,2.0,55,0.00,CLR,,0.00,WeatherDisplay:10.37,2013-02-17 04:07:00,
2013-02-16 22:22:00,16.9,3.1,29.50,ESE,117,0.0,2.0,54,0.00,CLR,,0.00,WeatherDisplay:10.37,2013-02-17 04:22:00,
2013-02-16 22:37:00,16.2,2.4,29.47,ENE,77,0.0,2.0,54,0.00,CLR,,0.00,WeatherDisplay:10.37,2013-02-17 04:37:00,
2013-02-16 22:52:00,15.6,2.3,29.47,East,98,0.0,2.0,55,0.00,CLR,,0.00,WeatherDisplay:10.37,2013-02-17 04:52:00,
2013-02-16 23:07:00,15.3,2.0,29.47,NE,47,0.0,0.0,55,0.00,CLR,,0.00,WeatherDisplay:10.37,2013-02-17 05:07:00,
2013-02-16 23:22:00,14.9,1.6,29.47,SE,138,1.0,1.0,55,0.00,CLR,,0.00,WeatherDisplay:10.37,2013-02-17 05:22:00,
2013-02-16 23:37:00,14.4,1.1,29.47,NE,48,1.0,3.0,55,0.00,CLR,,0.00,WeatherDisplay:10.37,2013-02-17 05:37:00,
2013-02-16 23:52:00,13.8,1.0,29.47,NNE,28,1.0,2.0,56,0.00,CLR,,0.00,WeatherDisplay:10.37,2013-02-17 05:52:00,